User: anonymous
Location: Oronoko Observatory
(41.9167°N, 86.3833°W)
Time: 00:13:59
(UTC-04:00)
Language:

PAYLOAD A - Orbit

View from above orbital plane
View from above orbital plane
View from above satellite
View from above satellite

Ground track
Ground track

The orbit data is extracted from the following two-line orbital elements,

1 27840U 03031A   14208.47918633  .00000001  00000-0  13513-4 0  5998
2 27840 098.2343 235.4482 0099421 061.5168 069.8373 14.38714568581504
Epoch (UTC): 27 July 2014 11:30:01
Eccentricity: 0.0099421
inclination: 98.2343°
perigee height: 692 km
apogee height: 834 km
right ascension of ascending node: 235.4482°
argument of perigee: 61.5168°
revolutions per day: 14.38714568
mean anomaly at epoch: 69.8373°
orbit number at epoch: 58150

The dashed part of the orbit path shows where the satellite is in the earth's shadow,  

DLR